Location: Luxembourg
(49.6117°N, 6.1300°E)
Time: 20:41:56
(UTC+01:00)

ISS - Visible Passes

Search period start: 20 January 2021 00:00
Search period end: 30 January 2021 00:00
Orbit: 418 x 419 km, 51.6° (Epoch: 21 January)

Date Brightness Start Highest point End Pass type
(mag) Time Alt. Az. Time Alt. Az. Time Alt. Az.
20 Jan -2.1 18:41:50 10° SSW 18:44:25 20° SE 18:45:00 20° SE visible
20 Jan -0.6 20:17:29 10° WSW 20:17:58 13° WSW 20:17:58 13° WSW visible
21 Jan -1.5 17:55:05 10° S 17:56:53 14° SE 17:58:41 10° ESE visible
21 Jan -2.9 19:29:49 10° SW 19:32:21 44° SSW 19:32:21 44° SSW visible
22 Jan -3.1 18:42:16 10° SW 18:45:28 42° SSE 18:46:41 29° E visible
22 Jan -0.7 20:18:50 10° W 20:19:38 16° W 20:19:38 16° W visible
23 Jan -2.5 17:54:50 10° SSW 17:57:48 29° SE 18:00:48 10° E visible
23 Jan -3.3 19:31:01 10° WSW 19:33:55 61° W 19:33:55 61° W visible
24 Jan -3.8 18:43:15 10° WSW 18:46:38 81° SSE 18:48:08 30° ENE visible
24 Jan -0.8 20:20:13 10° W 20:21:05 17° WNW 20:21:05 17° WNW visible
25 Jan -3.5 17:55:33 10° SW 17:58:53 60° SSE 18:02:13 10° ENE visible
25 Jan -3.2 19:32:22 10° W 19:35:17 54° NW 19:35:17 54° NW visible
26 Jan -3.7 18:44:31 10° W 18:47:53 68° N 18:49:27 29° ENE visible
26 Jan -0.8 20:21:31 10° WNW 20:22:24 17° WNW 20:22:24 17° WNW visible
27 Jan -3.7 17:56:41 10° WSW 18:00:03 81° NNW 18:03:26 10° ENE visible
27 Jan -3.2 19:33:41 10° WNW 19:36:33 53° NW 19:36:33 53° NW visible
28 Jan -3.5 18:45:49 10° W 18:49:10 58° N 18:50:43 28° ENE visible
28 Jan -0.9 20:22:43 10° WNW 20:23:40 18° WNW 20:23:40 18° WNW visible
29 Jan -3.5 17:57:56 10° W 18:01:17 61° N 18:04:37 10° ENE visible
29 Jan -3.5 19:34:53 10° WNW 19:37:51 64° NW 19:37:51 64° NW visible
